Retour au catalogue

FENGYUN 1C DEB

ActifPO
NORAD 37049·DEBRIS·🇨🇳 China

Lancé May 10, 1999 depuis Taiyuan Satellite Launch Center

Loading…

Prochains Passages (prochaines 24 heures)

TLE

FraisSource: Space-Track

Époque: Sep 12, 2026, 06:32 UTC

1 37049U 99025EEH 26255.27241114  .00003022  00000-0  88522-3 0  9995
2 37049  99.2459 274.1231 0035203 107.2207 253.2839 14.44383233676832

Suivez FENGYUN 1C DEB en temps réel avec AllMySat

Download on the App Store